Florala, AL

5:22 PM CST on November 20, 2017 (GMT -0600)
Florala

Weather History for K0J4 - July, 2013

Change the Weather History Date:

Monday, July 22, 2013

  Actual Average (KCEW) Record (KCEW)
Temperature  
Mean Temperature 82 °F -  
Max Temperature 90 °F 92 °F 99 °F (1981)
Min Temperature 73 °F 71 °F 66 °F (2004)
Cooling Degree Days 16    
Growing Degree Days 32 (Base 50)    
Moisture  
Dew Point 74 °F    
Average Humidity 88    
Maximum Humidity 100    
Minimum Humidity 57    
Precipitation  
Precipitation 0.40 in - - ()
Sea Level Pressure  
Sea Level Pressure 30.06 in    
Wind  
Wind Speed 4 mph (SW)    
Max Wind Speed 16 mph    
Max Gust Speed 25 mph    
Visibility 9 miles    
Events Fog , Rain , Thunderstorm    
Averages and records for this station are not official NWS values.
T = Trace of Precipitation, MM = Missing Value Source: NWS Daily Summary

Daily Weather History Graph

Daily Weather History Graph

Search for Another Location

Airport or City:

Trip Planner

Search our weather history database for the weather conditions in past years. The results will help you decide how hot, cold, wet, or windy it might be!

Date:

Astronomy

Jul. 22, 2013 Rise Set
Actual Time 5:56 AM CDT 7:46 PM CDT
Civil Twilight 5:29 AM CDT 8:13 PM CDT
Nautical Twilight 4:56 AM CDT 8:45 PM CDT
Astronomical Twilight 4:22 AM CDT 9:20 PM CDT
Moon 7:38 PM CDT (7/22) 5:47 AM CDT (7/22)
Length of Visible Light 14h 44m
Length of Day
13h 50m
Full, 100% of the Moon is Illuminated
Jul 22
Full
Jul 22
Full
Jul 29
Last Quarter
Aug 6
New
Aug 14
First Quarter

Hourly Weather History & Observations

Time (CDT) Temp. Heat Index Dew Point Humidity Pressure Visibility Wind Dir Wind Speed Gust Speed Precip Events Conditions
12:58 AM 73.9 °F - 72.0 °F 93% 30.07 in 10.0 mi Calm Calm - N/A   Clear
1:58 AM 73.9 °F - 72.0 °F 93% 30.05 in 10.0 mi SSW 3.5 mph - N/A   Clear
2:38 AM 75.2 °F - 73.4 °F 94% 30.05 in 10.0 mi SSW 4.6 mph - N/A   Mostly Cloudy
2:58 AM 75.0 °F - 73.0 °F 94% 30.04 in 10.0 mi SW 4.6 mph - N/A   Mostly Cloudy
3:15 AM - - - N/A% - - North - - N/A   Unknown
3:58 AM 75.0 °F - 73.0 °F 94% 30.04 in 10.0 mi SW 4.6 mph - N/A   Partly Cloudy
4:58 AM 75.9 °F - 73.9 °F 94% 30.05 in 10.0 mi SW 3.5 mph - N/A   Partly Cloudy
5:58 AM 75.0 °F - 73.0 °F 94% 30.06 in 10.0 mi Calm Calm - N/A   Scattered Clouds
6:04 AM 75.2 °F - 73.4 °F 94% 30.08 in 10.0 mi Calm Calm - N/A   Mostly Cloudy
6:24 AM 75.2 °F - 73.4 °F 94% 30.07 in 9.0 mi Calm Calm - N/A   Scattered Clouds
6:58 AM 77.0 °F - 73.9 °F 90% 30.06 in 10.0 mi Calm Calm - N/A   Partly Cloudy
7:56 AM 80.6 °F 86.2 °F 75.2 °F 84% 30.08 in 10.0 mi Variable 5.8 mph - N/A   Partly Cloudy
7:58 AM 81.0 °F 87.3 °F 75.9 °F 85% 30.07 in 10.0 mi SW 4.6 mph - N/A   Partly Cloudy
8:17 AM 80.6 °F 86.2 °F 75.2 °F 84% 30.09 in 10.0 mi WSW 9.2 mph - N/A   Mostly Cloudy
8:58 AM 82.9 °F 90.8 °F 75.9 °F 79% 30.08 in 10.0 mi SW 6.9 mph - N/A   Mostly Cloudy
9:05 AM 82.4 °F 89.5 °F 75.2 °F 79% 30.09 in 10.0 mi WSW 9.2 mph - N/A   Mostly Cloudy
9:58 AM 84.0 °F 91.9 °F 75.0 °F 74% 30.07 in 10.0 mi Calm Calm - N/A   Mostly Cloudy
10:05 AM 82.4 °F 89.5 °F 75.2 °F 79% 30.08 in 10.0 mi Variable 3.5 mph - N/A   Mostly Cloudy
10:12 AM 82.4 °F 89.5 °F 75.2 °F 79% 30.09 in 10.0 mi Variable 4.6 mph - N/A   Mostly Cloudy
10:22 AM 84.2 °F 92.3 °F 75.2 °F 74% 30.09 in 10.0 mi Variable 4.6 mph - N/A   Mostly Cloudy
10:34 AM 84.2 °F 90.9 °F 73.4 °F 70% 30.09 in 10.0 mi Calm Calm - N/A   Mostly Cloudy
10:58 AM 86.0 °F 93.8 °F 73.9 °F 67% 30.07 in 10.0 mi Variable 4.6 mph - N/A   Mostly Cloudy
11:04 AM 87.8 °F 95.6 °F 73.4 °F 62% 30.08 in 10.0 mi Calm Calm - N/A   Mostly Cloudy
11:58 AM 88.0 °F 95.6 °F 73.0 °F 61% 30.05 in 10.0 mi Variable 3.5 mph - N/A   Scattered Clouds
12:58 PM 90.0 °F 97.9 °F 73.0 °F 57% 30.04 in 10.0 mi Variable 4.6 mph - N/A   Mostly Cloudy
1:32 PM 80.6 °F 84.6 °F 71.6 °F 74% 30.06 in 10.0 mi SW 16.1 mph 24.2 mph N/A Thunderstorm Thunderstorm
1:43 PM 75.2 °F - 71.6 °F 89% 30.07 in 2.0 mi SW 15.0 mph 25.3 mph 0.05 in Thunderstorm Overcast
1:47 PM 75.2 °F - 71.6 °F 89% 30.07 in 0.8 mi SW 13.8 mph 25.3 mph 0.18 in Thunderstorm Overcast
1:49 PM 75.2 °F - 73.4 °F 94% 30.08 in 0.5 mi SW 13.8 mph 24.2 mph 0.27 in Fog , Thunderstorm Unknown
1:58 PM 73.9 °F - 73.0 °F 97% 30.06 in 1.2 mi SW 10.4 mph 21.9 mph 0.30 in Rain , Thunderstorm Light Thunderstorms and Rain
2:03 PM 75.2 °F - 73.4 °F 94% 30.07 in 6.0 mi SW 11.5 mph - 0.01 in Rain , Thunderstorm Light Thunderstorms and Rain
2:12 PM 75.2 °F - 73.4 °F 94% 30.08 in 1.8 mi Variable 3.5 mph 16.1 mph 0.05 in Thunderstorm Overcast
2:37 PM 75.2 °F - 73.4 °F 94% 30.07 in 1.8 mi Variable 4.6 mph - 0.13 in   Overcast
2:41 PM 75.2 °F - 73.4 °F 94% 30.05 in 3.0 mi SSW 6.9 mph - 0.13 in   Overcast
2:58 PM - - - N/A% - 6.0 mi Calm Calm - N/A Rain Light Rain
3:12 PM 75.2 °F - 73.4 °F 94% 30.09 in 2.0 mi SW 3.5 mph - 0.03 in   Overcast
3:23 PM 75.2 °F - 73.4 °F 94% 30.09 in 4.0 mi SSW 4.6 mph - 0.05 in Rain Light Rain
3:34 PM 75.2 °F - 73.4 °F 94% 30.08 in 10.0 mi Calm Calm - 0.05 in Rain Light Rain
3:38 PM 75.2 °F - 73.4 °F 94% 30.08 in 10.0 mi Calm Calm - 0.05 in Thunderstorm Thunderstorm
3:45 PM 75.2 °F - 73.4 °F 94% 30.08 in 10.0 mi Calm Calm - 0.05 in Thunderstorm Thunderstorm
3:51 PM 75.2 °F - 73.4 °F 94% 30.08 in 10.0 mi Calm Calm - 0.05 in   Mostly Cloudy
3:56 PM 75.2 °F - 73.4 °F 94% 30.09 in 10.0 mi Calm Calm - 0.05 in   Mostly Cloudy
3:58 PM 75.9 °F - 73.9 °F 94% 30.08 in 10.0 mi Calm Calm - 0.05 in   Overcast
4:58 PM 75.9 °F - 73.9 °F 94% 30.05 in 8.0 mi South 5.8 mph - 0.05 in Rain Light Rain
5:11 PM 75.2 °F - 75.2 °F 100% 30.05 in 10.0 mi South 4.6 mph - 0.00 in Rain Light Rain
5:53 PM 77.0 °F - 75.2 °F 94% 30.05 in 10.0 mi SW 8.1 mph - 0.00 in   Overcast
5:58 PM 77.0 °F - 75.0 °F 94% 30.04 in 10.0 mi SSW 11.5 mph - 0.00 in   Overcast
6:08 PM 78.8 °F - 75.2 °F 89% 30.05 in 10.0 mi SSW 9.2 mph - N/A   Overcast
6:12 PM 78.8 °F - 75.2 °F 89% 30.05 in 10.0 mi SSW 6.9 mph - N/A   Overcast
6:58 PM 77.0 °F - 75.0 °F 94% 30.06 in 10.0 mi SSW 9.2 mph - N/A   Overcast
7:39 PM 75.2 °F - 73.4 °F 94% 30.06 in 10.0 mi SW 11.5 mph - N/A Thunderstorm Thunderstorm
7:54 PM 75.2 °F - 73.4 °F 94% 30.06 in 10.0 mi SW 6.9 mph - N/A   Mostly Cloudy
7:58 PM 75.9 °F - 73.0 °F 91% 30.05 in 10.0 mi SW 5.8 mph - N/A   Mostly Cloudy
8:58 PM 73.9 °F - 72.0 °F 93% 30.05 in 10.0 mi SW 3.5 mph - N/A   Partly Cloudy
9:54 PM 73.4 °F - 71.6 °F 94% 30.02 in 10.0 mi SW 6.9 mph - 0.00 in   Scattered Clouds
9:58 PM 73.9 °F - 72.0 °F 93% 30.01 in 10.0 mi SW 6.9 mph - 0.00 in   Scattered Clouds
10:58 PM 73.9 °F - 72.0 °F 93% 30.01 in 10.0 mi SW 6.9 mph - N/A   Clear
11:30 PM 73.4 °F - 71.6 °F 94% 30.03 in 10.0 mi SW 5.8 mph - N/A   Partly Cloudy
11:58 PM 73.0 °F - 71.1 °F 93% 30.01 in 10.0 mi SW 4.6 mph - N/A   Partly Cloudy